TimeEST,TemperatureF,Dew PointF,Humidity,Sea Level PressureIn,VisibilityMPH,Wind Direction,Wind SpeedMPH,Gust SpeedMPH,PrecipitationIn,Events,Conditions,WindDirDegrees,DateUTC
12:58 AM,47.5,36.5,66,30.44,10.0,East,5.8,-,N/A,,Clear,90,2013-11-05 05:58:00
1:58 AM,46.9,36.1,66,30.43,10.0,East,6.9,-,N/A,,Clear,90,2013-11-05 06:58:00
2:58 AM,46.9,36.0,66,30.43,10.0,East,6.9,-,N/A,,Clear,90,2013-11-05 07:58:00
3:58 AM,45.9,36.0,68,30.43,10.0,Variable,6.9,-,N/A,,Clear,0,2013-11-05 08:58:00
4:58 AM,45.1,36.1,71,30.44,10.0,ENE,5.8,-,N/A,,Clear,70,2013-11-05 09:58:00
5:58 AM,44.4,35.1,70,30.45,10.0,East,8.1,-,N/A,,Clear,90,2013-11-05 10:58:00
6:58 AM,43.5,34.0,69,30.45,10.0,East,5.8,-,N/A,,Mostly Cloudy,90,2013-11-05 11:58:00
7:58 AM,44.2,32.9,64,30.48,10.0,Variable,6.9,-,N/A,,Mostly Cloudy,0,2013-11-05 12:58:00
8:58 AM,48.4,33.3,56,30.47,10.0,East,13.8,19.6,N/A,,Mostly Cloudy,80,2013-11-05 13:58:00
9:58 AM,52.0,33.6,50,30.47,10.0,East,13.8,19.6,N/A,,Mostly Cloudy,90,2013-11-05 14:58:00
10:58 AM,53.4,32.2,44,30.47,10.0,East,9.2,-,N/A,,Mostly Cloudy,80,2013-11-05 15:58:00
11:58 AM,56.1,33.3,42,30.45,10.0,Variable,6.9,-,N/A,,Mostly Cloudy,0,2013-11-05 16:58:00
12:58 PM,60.3,32.7,35,30.41,10.0,East,9.2,-,N/A,,Mostly Cloudy,90,2013-11-05 17:58:00
1:58 PM,62.1,34.2,35,30.38,10.0,Variable,5.8,-,N/A,,Partly Cloudy,0,2013-11-05 18:58:00
2:58 PM,64.2,34.9,34,30.36,10.0,Variable,5.8,-,N/A,,Mostly Cloudy,0,2013-11-05 19:58:00
3:58 PM,63.5,35.6,35,30.35,10.0,East,4.6,-,N/A,,Mostly Cloudy,80,2013-11-05 20:58:00
4:58 PM,61.3,36.7,40,30.35,10.0,East,5.8,-,N/A,,Mostly Cloudy,80,2013-11-05 21:58:00
5:58 PM,58.1,36.7,45,30.34,10.0,ENE,4.6,-,N/A,,Mostly Cloudy,60,2013-11-05 22:58:00
6:58 PM,54.9,36.9,51,30.35,10.0,East,4.6,-,N/A,,Scattered Clouds,80,2013-11-05 23:58:00
7:58 PM,54.1,37.2,53,30.37,10.0,Variable,4.6,-,N/A,,Mostly Cloudy,0,2013-11-06 00:58:00
8:58 PM,52.7,38.7,59,30.37,10.0,ENE,3.5,-,N/A,,Scattered Clouds,70,2013-11-06 01:58:00
9:58 PM,54.1,42.8,66,30.37,10.0,East,5.8,-,N/A,,Mostly Cloudy,80,2013-11-06 02:58:00
10:58 PM,53.6,44.6,72,30.36,10.0,East,4.6,-,N/A,,Mostly Cloudy,80,2013-11-06 03:58:00
11:58 PM,53.2,45.7,76,30.34,10.0,East,8.1,-,N/A,,Overcast,80,2013-11-06 04:58:00